Location: B�di�
(14.6834°N, 3.1047°W)
Time: 05:30:02
(UTC+00:00)

ATLAS 3B R/B - Pass Details

Date: 24 January 2020
Orbit: 1027 x 1168 km, 63.8° (Epoch: 09 February)

Event Time Altitude Azimuth Distance (km) Brightness Sun altitude
Rises 20:06:44 0° 202° (SSW) 3,860 6.1 -28.5°
Reaches altitude 10° 20:09:24 10° 201° (SSW) 2,886 5.3 -29.1°
Enters shadow 20:16:00 84° 160° (SSE) 1,052 2.5 -30.7°
